User: anonymous   Login
Location: Glencliff
(36.1226°N, 86.7183°W)
Time: 23:47:37
(UTC+00:00)
Language:

Ariane Rocket - Orbit

View from above orbital plane
View from above orbital plane
View from above satellite
View from above satellite

Ground track
Ground track

The orbit data is extracted from the following two-line orbital elements,

1 23561U 95021B   19287.15153660  .00000035  00000-0  26911-4 0  9999
2 23561  98.7574 317.1240 0005836 265.7734 135.1287 14.37938300283258
Epoch (UTC): 14 October 2019 03:38:12
Eccentricity: 0.0005836
inclination: 98.7574°
perigee height: 761 km
apogee height: 769 km
right ascension of ascending node: 317.1240°
argument of perigee: 265.7734°
revolutions per day: 14.37938300
mean anomaly at epoch: 135.1287°
orbit number at epoch: 28325

The dashed part of the orbit path shows where the satellite is in the earth's shadow,  

DLR